[[{"header":{"parameterUnit":"m.s-1","parameterCategory":2,"la1":30.2991,"la2":30.254,"lo1":-89.0895,"lo2":-89.0444,"dy":0.0017,"dx":0.0017,"nx":28,"ny":28,"refTime":"2023-10-08T09:00:00:Z","depth":"0","parameterNumber":2,"parameterNumberName":"U-component_of_CURRENTS"},"data":[0,0,0,0,0,0,0,0,0,0,0,0,0,0,0,0,0,0,0,0,0,0,0,0,0,0,0,0,0,0,0,0,0,0,0,0,0,0,0,0,0,0,0,0,0,0,0,0,0,0,0,0,0,0,0,0,0,0,-0.1896,-0.1896,0,-0.1907,-0.1907,-0.1907,-0.1887,-0.1886,-0.1886,-0.1885,-0.1861,-0.1861,-0.1861,0,0,0,0,0,0,0,0,0,0,0,0,0,-0.1844,-0.1845,-0.1896,-0.1896,-0.1896,-0.1907,-0.1907,-0.1907,-0.1887,-0.1886,-0.1886,-0.1885,-0.1861,-0.1861,-0.1861,0,0,0,0,0,0,0,0,0,0,0,0,0,-0.186,-0.1845,-0.1895,-0.1889,-0.1889,-0.1907,-0.1907,-0.1907,-0.1887,-0.1886,-0.1885,-0.1885,-0.1861,-0.1861,-0.1861,-0.1874,0,0,-0.186,-0.186,0,0,0,0,0,0,0,0,-0.1859,-0.1862,-0.189,-0.1889,-0.1889,-0.1897,-0.188,-0.1895,-0.1887,-0.1885,-0.1885,-0.1884,-0.1872,-0.187,-0.1872,-0.1873,-0.1872,-0.186,-0.186,-0.186,-0.186,0,0,0,0,0,0,0,-0.1858,-0.1861,-0.1898,-0.189,-0.189,-0.1881,-0.1883,-0.1883,-0.188,-0.1886,-0.1885,-0.1889,-0.1871,-0.1872,-0.1871,-0.1872,-0.186,-0.186,-0.186,-0.186,-0.1888,-0.1889,0,0,0,0,0,0,-0.1862,-0.186,-0.1898,-0.1899,-0.1874,-0.1883,-0.1885,-0.1893,-0.1881,-0.1879,-0.189,-0.1888,-0.1873,-0.1872,-0.187,-0.1888,-0.186,-0.186,-0.1859,-0.1887,-0.1888,-0.1889,0,0,0,0,0,0,-0.1861,-0.1866,-0.1897,-0.1881,-0.1885,-0.1885,-0.1895,-0.1894,-0.1893,-0.1885,-0.1882,-0.189,-0.1872,-0.1871,-0.1873,-0.1887,-0.1859,-0.1859,-0.1886,-0.1887,-0.1889,-0.1922,0,0,0,0,0,0,-0.186,-0.1865,-0.1868,-0.1881,-0.1886,-0.1911,-0.1896,-0.1895,-0.1898,-0.1896,-0.1884,-0.1881,-0.1872,-0.1874,-0.1873,-0.1886,-0.1859,-0.1885,-0.1887,-0.1888,-0.192,-0.1924,-0.1928,0,0,0,0,0,-0.1858,-0.1869,-0.1869,-0.1873,-0.1892,-0.1912,-0.1913,-0.1909,-0.1899,-0.1904,-0.1896,-0.1882,-0.1884,-0.1874,-0.1873,-0.1886,-0.1884,-0.1886,-0.1888,-0.1918,-0.1923,-0.1928,0,0,0,0,0,0,-0.1846,-0.1868,-0.1868,-0.1884,-0.1898,-0.1909,-0.1911,-0.1912,-0.191,-0.1903,-0.1892,-0.1889,-0.1897,-0.189,-0.1879,-0.1901,-0.1883,-0.1885,-0.1906,-0.1911,-0.1915,-0.1917,-0.1859,0,0,0,0,0,-0.1847,-0.1858,-0.1879,-0.1889,-0.1898,-0.1904,-0.191,-0.1911,-0.1915,-0.1913,-0.1907,-0.1902,-0.1907,-0.1906,-0.1906,-0.1917,-0.1916,-0.1926,-0.1931,-0.1934,-0.1936,-0.195,-0.1956,-0.1896,-0.1896,-0.1896,0,0,-0.1843,-0.1856,-0.1862,-0.1887,-0.1893,-0.1914,-0.1905,-0.1917,-0.1932,-0.1911,-0.192,-0.1916,-0.1914,-0.1926,-0.1929,-0.1919,-0.1953,-0.1937,-0.194,-0.1939,-0.1953,-0.1959,-0.1964,-0.1897,-0.1897,-0.1897,0,0,-0.1844,-0.1856,-0.1867,-0.1885,-0.1904,-0.1915,-0.1921,-0.1936,-0.1939,-0.1953,-0.1944,-0.195,-0.1951,-0.1957,-0.196,-0.199,-0.1975,-0.1987,-0.2008,-0.2022,-0.2027,-0.2032,-0.2044,-0.2049,-0.1988,-0.1988,-0.1988,0,-0.1836,-0.1856,-0.1872,-0.1893,-0.1908,-0.1919,-0.1938,-0.1951,-0.1964,-0.1973,-0.1959,-0.1976,-0.197,-0.1996,-0.2002,-0.2,-0.2,-0.1987,-0.2028,-0.2032,-0.2036,-0.2047,-0.2052,-0.199,-0.199,-0.199,-0.199,0,-0.185,-0.1867,-0.1877,-0.1907,-0.193,-0.1945,-0.1975,-0.1992,-0.1995,-0.2006,-0.2027,-0.2023,-0.2032,-0.2035,-0.2024,-0.2052,-0.2042,-0.2032,-0.2013,-0.2044,-0.2054,-0.2059,-0.1993,-0.1992,-0.1992,-0.1991,0,0,-0.1822,-0.1874,-0.1876,-0.1895,-0.1937,-0.1958,-0.1994,-0.2028,-0.2054,-0.206,-0.2088,-0.2093,-0.2086,-0.2088,-0.2081,-0.2091,-0.2117,-0.2069,-0.2069,-0.2078,-0.2146,-0.2164,-0.217,-0.2109,-0.211,-0.211,-0.2144,0,-0.1821,-0.1859,-0.1889,-0.1926,-0.1949,-0.1985,-0.2022,-0.2058,-0.2082,-0.2114,-0.2119,-0.2136,-0.2109,-0.2111,-0.2119,-0.2118,-0.213,-0.2109,-0.2117,-0.2117,-0.2127,-0.2177,-0.2144,-0.2173,-0.2149,-0.2149,-0.215,0,-0.1817,-0.1847,-0.1881,-0.1942,-0.1956,-0.1983,-0.2047,-0.208,-0.2136,-0.2151,-0.2172,-0.2178,-0.2195,-0.2166,-0.2182,-0.2166,-0.2157,-0.2155,-0.2156,-0.2163,-0.2144,-0.2138,-0.2182,-0.2163,-0.2157,-0.2156,-0.2156,0,-0.1781,-0.1838,-0.1863,-0.1883,-0.1956,-0.198,-0.2017,-0.2083,-0.212,-0.2168,-0.2199,-0.2218,-0.2231,-0.2225,-0.2221,-0.2198,-0.2243,-0.2212,-0.2224,-0.2224,-0.2194,-0.2191,-0.2218,-0.2227,-0.2227,-0.2227,-0.2227,0,-0.1764,-0.1782,-0.1847,-0.1861,-0.1901,-0.196,-0.2008,-0.2052,-0.2122,-0.2166,-0.2203,-0.2242,-0.2245,-0.2274,-0.225,-0.2264,-0.2267,-0.2241,-0.2241,-0.2206,-0.2204,-0.2183,-0.2178,-0.2228,-0.2228,-0.2228,-0.2227,0,-0.1711,-0.1754,-0.1786,-0.1859,-0.1882,-0.1906,-0.1993,-0.203,-0.2103,-0.2165,-0.2179,-0.2263,-0.2301,-0.2318,-0.2326,-0.2311,-0.2288,-0.2314,-0.2277,-0.2272,-0.2256,-0.2254,-0.2254,-0.219,-0.233,-0.233,-0.2331,0,-0.1683,-0.1691,-0.1764,-0.1781,-0.1808,-0.1859,-0.1896,-0.1992,-0.204,-0.2172,-0.2198,-0.2281,-0.2332,-0.2384,-0.2385,-0.2385,-0.2319,-0.2339,-0.2291,-0.227,-0.2266,-0.2224,-0.2165,-0.2262,-0.2262,-0.2262,-0.2262,0,-0.1617,-0.1639,-0.1663,-0.1712,-0.1748,-0.1796,-0.186,-0.1903,-0.2019,-0.2102,-0.2204,-0.2267,-0.2364,-0.239,-0.242,-0.239,-0.2293,-0.234,-0.2323,-0.2233,-0.2182,-0.2114,-0.2225,-0.2263,-0.2263,-0.2263,-0.2263,-0.2262,-0.1547,-0.1549,-0.1585,-0.1624,-0.1666,-0.1709,-0.1722,-0.1827,-0.1914,-0.2046,-0.2158,-0.2294,-0.2372,-0.2431,-0.2406,-0.2361,-0.2317,-0.2285,-0.2288,-0.2251,-0.2178,-0.2299,-0.2336,-0.2336,-0.2336,-0.2337,-0.2337,0,-0.146,-0.1474,-0.1499,-0.1543,-0.1554,-0.1611,-0.1676,-0.1691,-0.1774,-0.1986,-0.2106,-0.2348,-0.2372,-0.2418,-0.2423,-0.2345,-0.2231,-0.2254,-0.2173,-0.2114,-0.2232,-0.2218,-0.2224,-0.2224,-0.2224,-0.2224,-0.2224,-0.2224,-0.1414,-0.1404,-0.1427,-0.1418,-0.144,-0.1432,-0.1443,-0.1506,-0.1635,-0.1871,-0.212,-0.2349,-0.2429,-0.257,-0.2464,-0.2331,-0.221,-0.2151,-0.2106,-0.2194,-0.2196,-0.2197,-0.2182,-0.2181,-0.2181,-0.1921,-0.1919,-0.1918]},{"header":{"parameterUnit":"m.s-1","parameterCategory":2,"la1":30.2991,"la2":30.254,"lo1":-89.0895,"lo2":-89.0444,"dy":0.0017,"dx":0.0017,"nx":28,"ny":28,"refTime":"2023-10-08T09:00:00:Z","depth":"0","parameterNumber":3,"parameterNumberName":"V-component_of_CURRENTS"},"data":[0,0,0,0,0,0,0,0,0,0,0,0,0,0,0,0,0,0,0,0,0,0,0,0,0,0,0,0,0,0,0,0,0,0,0,0,0,0,0,0,0,0,0,0,0,0,0,0,0,0,0,0,0,0,0,0,0,0,-0.0258,-0.0257,0,-0.0181,-0.018,-0.0179,-0.0135,-0.0134,-0.0134,-0.0134,-0.0067,-0.0065,-0.0063,0,0,0,0,0,0,0,0,0,0,0,0,0,-0.0334,-0.0333,-0.0258,-0.0257,-0.0256,-0.0181,-0.018,-0.0179,-0.0135,-0.0134,-0.0134,-0.0134,-0.0067,-0.0065,-0.0063,0,0,0,0,0,0,0,0,0,0,0,0,0,-0.0283,-0.0332,-0.0258,-0.0225,-0.0221,-0.0182,-0.018,-0.0179,-0.0135,-0.0134,-0.0134,-0.0134,-0.0068,-0.0065,-0.0063,-0.0053,0,0,-0.0055,-0.0054,0,0,0,0,0,0,0,0,-0.0286,-0.0281,-0.0231,-0.0227,-0.0223,-0.0167,-0.0182,-0.0137,-0.0135,-0.0168,-0.0134,-0.0134,-0.0101,-0.0096,-0.0082,-0.005,-0.0047,-0.0055,-0.0054,-0.0053,-0.0052,0,0,0,0,0,0,0,-0.029,-0.0284,-0.0228,-0.023,-0.0225,-0.0203,-0.0195,-0.0173,-0.0137,-0.0165,-0.0161,-0.0153,-0.0099,-0.0085,-0.008,-0.0046,-0.0055,-0.0053,-0.0052,-0.0051,-0.0003,-0.0004,0,0,0,0,0,0,-0.0301,-0.0287,-0.023,-0.0225,-0.0255,-0.0202,-0.0194,-0.0185,-0.0137,-0.0129,-0.0153,-0.0151,-0.0089,-0.0083,-0.0078,-0.0068,-0.0053,-0.005,-0.0049,-0.0003,-0.0004,-0.0004,0,0,0,0,0,0,-0.0303,-0.0297,-0.0233,-0.0254,-0.0245,-0.0201,-0.0192,-0.0184,-0.0169,-0.0128,-0.012,-0.0146,-0.0088,-0.0081,-0.0057,-0.0065,-0.0049,-0.0047,-0.0003,-0.0003,-0.0004,-0.0045,0,0,0,0,0,0,-0.0306,-0.0298,-0.0299,-0.0255,-0.0244,-0.0215,-0.0192,-0.0183,-0.0164,-0.016,-0.012,-0.0113,-0.0088,-0.0061,-0.0055,-0.0061,-0.0045,-0.0003,-0.0003,-0.0004,-0.0043,-0.0047,-0.005,0,0,0,0,0,-0.0309,-0.0311,-0.0299,-0.0292,-0.0245,-0.0215,-0.0207,-0.0175,-0.0164,-0.016,-0.013,-0.0114,-0.0059,-0.0059,-0.0052,-0.0057,-0.0003,-0.0003,-0.0004,-0.0042,-0.0046,-0.005,0,0,0,0,0,0,-0.0344,-0.0305,-0.0292,-0.0282,-0.0253,-0.0207,-0.0201,-0.0179,-0.0152,-0.015,-0.0113,-0.0104,-0.0087,-0.0066,-0.0067,-0.0045,-0.003,-0.0029,-0.0062,-0.0065,-0.0068,-0.0077,-0.0043,0,0,0,0,0,-0.0352,-0.0345,-0.0304,-0.0297,-0.0285,-0.0245,-0.0229,-0.0207,-0.0176,-0.0163,-0.0133,-0.0106,-0.0084,-0.007,-0.0047,-0.0033,-0.0013,-0.0033,-0.0036,-0.0039,-0.0041,-0.0018,-0.0019,-0.0005,-0.0005,-0.0005,0,0,-0.0365,-0.0343,-0.0338,-0.0304,-0.028,-0.0268,-0.0235,-0.0215,-0.0205,-0.0161,-0.0143,-0.0115,-0.0082,-0.0066,-0.0058,-0.0049,-0.0032,-0.0039,-0.0042,-0.0042,-0.0019,-0.002,-0.0021,-0.0006,-0.0006,-0.0006,0,0,-0.0387,-0.0366,-0.0368,-0.0347,-0.0314,-0.0288,-0.0285,-0.0242,-0.0224,-0.0201,-0.017,-0.0146,-0.011,-0.0086,-0.0071,-0.0077,-0.005,-0.0073,-0.0093,-0.0071,-0.0072,-0.0073,-0.005,-0.0048,-0.0074,-0.0074,-0.0074,0,-0.0406,-0.0401,-0.0364,-0.0359,-0.0349,-0.0302,-0.0303,-0.0276,-0.0231,-0.0218,-0.0203,-0.0148,-0.012,-0.0099,-0.0099,-0.0085,-0.0067,-0.0082,-0.0076,-0.0076,-0.0076,-0.0052,-0.0049,-0.0076,-0.0075,-0.0075,-0.0075,0,-0.0428,-0.0424,-0.0423,-0.0403,-0.0386,-0.038,-0.0338,-0.0321,-0.0294,-0.0263,-0.0234,-0.0191,-0.0158,-0.0147,-0.0123,-0.011,-0.0095,-0.0084,-0.0068,-0.008,-0.0053,-0.005,-0.0079,-0.0078,-0.0077,-0.0077,0,0,-0.0464,-0.0446,-0.0445,-0.0451,-0.0411,-0.0403,-0.0385,-0.0356,-0.0349,-0.0301,-0.0287,-0.0241,-0.0211,-0.0192,-0.0158,-0.0135,-0.0117,-0.0112,-0.011,-0.0092,-0.0067,-0.0026,-0.0018,-0.0105,-0.0105,-0.0104,-0.0049,0,-0.0495,-0.0509,-0.0484,-0.0497,-0.0503,-0.0459,-0.0451,-0.0417,-0.0378,-0.0349,-0.0295,-0.0268,-0.023,-0.0216,-0.0186,-0.0132,-0.011,-0.0133,-0.0055,-0.0053,-0.0017,-0.0013,0.0003,0.0056,-0.0045,-0.0045,-0.0044,0,-0.0522,-0.053,-0.0552,-0.0555,-0.0553,-0.055,-0.0529,-0.0512,-0.0453,-0.0425,-0.0376,-0.0326,-0.0275,-0.0248,-0.0161,-0.0177,-0.0129,-0.0087,-0.0084,-0.0028,-0.0005,0.0052,0.0066,0.0169,-0.0039,-0.0039,-0.004,0,-0.057,-0.0577,-0.0602,-0.0601,-0.0592,-0.0594,-0.0582,-0.0535,-0.0527,-0.0464,-0.0449,-0.0374,-0.0339,-0.0266,-0.0161,-0.0166,-0.0065,-0.0062,0.0019,0.0023,0.0061,0.0068,0.0182,-0.0013,-0.0013,-0.0013,-0.0014,0,-0.0611,-0.063,-0.063,-0.0645,-0.0682,-0.0645,-0.0662,-0.0635,-0.0593,-0.059,-0.0492,-0.0469,-0.0343,-0.026,-0.0174,-0.0055,-0.0073,0.002,0.0042,0.0048,0.0052,0.0164,0.0227,-0.0011,-0.0012,-0.0012,-0.0013,0,-0.0655,-0.0653,-0.069,-0.0699,-0.0705,-0.0727,-0.0725,-0.0734,-0.068,-0.0669,-0.0653,-0.054,-0.0426,-0.0288,-0.0159,-0.0073,0.0109,0.0077,0.0082,0.0104,0.027,0.033,0.0507,0.0533,0.0169,0.017,0.0171,0,-0.0678,-0.0701,-0.0741,-0.0775,-0.0782,-0.0806,-0.0827,-0.0787,-0.0788,-0.0717,-0.0719,-0.0594,-0.0515,-0.0282,-0.0093,0.0082,0.0168,0.0195,0.0189,0.0291,0.0374,0.0432,0.0443,0.0222,0.0223,0.0225,0.0226,0,-0.0727,-0.0741,-0.0778,-0.0855,-0.0891,-0.093,-0.0946,-0.0959,-0.091,-0.0893,-0.084,-0.0766,-0.0506,-0.0282,-0.0018,0.0092,0.0289,0.0225,0.0328,0.043,0.0503,0.0534,0.0175,0.0236,0.0235,0.0234,0.0234,0.0233,-0.0762,-0.0811,-0.0867,-0.0942,-0.099,-0.1043,-0.108,-0.109,-0.1101,-0.1074,-0.0958,-0.0837,-0.0442,-0.006,0.0075,0.0398,0.038,0.0471,0.0535,0.0584,0.0618,0.0289,0.0377,0.0377,0.0376,0.0376,0.0376,0,-0.081,-0.0871,-0.0952,-0.104,-0.1115,-0.1112,-0.1157,-0.1195,-0.1229,-0.1172,-0.1109,-0.0688,-0.0312,0.0063,0.0554,0.0705,0.0718,0.0775,0.0851,0.0843,0.0547,0.0556,0.0689,0.0689,0.0689,0.0689,0.0689,0.0689,-0.0837,-0.0933,-0.0989,-0.1133,-0.119,-0.1274,-0.1301,-0.1351,-0.133,-0.1235,-0.103,-0.0862,-0.0205,0.0651,0.1061,0.1057,0.115,0.1162,0.1197,0.0992,0.0967,0.0944,0.0966,0.1183,0.1183,0.1449,0.1452,0.1454]}],[{"header":{"parameterUnit":"m.s-1","parameterCategory":2,"la1":30.2991,"la2":30.254,"lo1":-89.0895,"lo2":-89.0444,"dy":0.0017,"dx":0.0017,"nx":28,"ny":28,"refTime":"2023-10-08T09:00:00:Z","depth":"2","parameterNumber":2,"parameterNumberName":"U-component_of_CURRENTS"},"data":[0,0,0,0,0,0,0,0,0,0,0,0,0,0,0,0,0,0,0,0,0,0,0,0,0,0,0,0,0,0,0,0,0,0,0,0,0,0,0,0,0,0,0,0,0,0,0,0,0,0,0,0,0,0,0,0,0,0,-0.1839,-0.1839,0,-0.1851,-0.1851,-0.1851,-0.1833,-0.1832,-0.1832,-0.1832,-0.1812,-0.1811,-0.1811,0,0,0,0,0,0,0,0,0,0,0,0,0,-0.1788,-0.1789,-0.1839,-0.1839,-0.184,-0.1851,-0.1851,-0.1851,-0.1833,-0.1832,-0.1832,-0.1831,-0.1812,-0.1811,-0.1811,0,0,0,0,0,0,0,0,0,0,0,0,0,-0.1804,-0.1789,-0.1839,-0.1833,-0.1833,-0.1851,-0.1851,-0.1851,-0.1833,-0.1832,-0.1832,-0.1831,-0.1812,-0.1812,-0.1811,-0.1824,0,0,-0.1811,-0.1811,0,0,0,0,0,0,0,0,-0.1803,-0.1806,-0.1834,-0.1834,-0.1834,-0.1842,-0.1826,-0.1841,-0.1833,-0.1831,-0.1832,-0.1831,-0.182,-0.182,-0.1821,-0.1823,-0.1822,-0.1811,-0.1811,-0.1811,-0.1811,0,0,0,0,0,0,0,-0.1802,-0.1805,-0.1842,-0.1834,-0.1834,-0.1826,-0.1828,-0.1829,-0.1827,-0.1831,-0.183,-0.1835,-0.182,-0.1821,-0.182,-0.1822,-0.1811,-0.1811,-0.1811,-0.181,-0.1841,-0.1842,0,0,0,0,0,0,-0.1806,-0.1804,-0.1841,-0.1842,-0.1819,-0.1828,-0.183,-0.1838,-0.1828,-0.1827,-0.1836,-0.1834,-0.1822,-0.182,-0.1819,-0.1839,-0.1811,-0.181,-0.181,-0.184,-0.1841,-0.1842,0,0,0,0,0,0,-0.1805,-0.181,-0.1841,-0.1825,-0.1828,-0.183,-0.1839,-0.1839,-0.1839,-0.1832,-0.1829,-0.1837,-0.1821,-0.182,-0.1823,-0.1838,-0.181,-0.181,-0.1839,-0.184,-0.1842,-0.1874,0,0,0,0,0,0,-0.1804,-0.1809,-0.1813,-0.1825,-0.1829,-0.1855,-0.184,-0.1839,-0.1844,-0.1842,-0.1832,-0.183,-0.1821,-0.1824,-0.1823,-0.1837,-0.181,-0.1838,-0.184,-0.1841,-0.1872,-0.1876,-0.188,0,0,0,0,0,-0.1802,-0.1812,-0.1813,-0.1817,-0.1836,-0.1855,-0.1857,-0.1854,-0.1845,-0.185,-0.1843,-0.183,-0.1834,-0.1825,-0.1824,-0.1837,-0.1837,-0.1839,-0.1841,-0.187,-0.1876,-0.188,0,0,0,0,0,0,-0.179,-0.1812,-0.1813,-0.1829,-0.1842,-0.1853,-0.1856,-0.1857,-0.1856,-0.1851,-0.184,-0.1838,-0.1847,-0.184,-0.183,-0.1852,-0.1835,-0.1836,-0.1857,-0.1862,-0.1866,-0.1868,-0.181,0,0,0,0,0,-0.1791,-0.1802,-0.1824,-0.1833,-0.1842,-0.1849,-0.1855,-0.1857,-0.1861,-0.1859,-0.1854,-0.1852,-0.1857,-0.1856,-0.1857,-0.1869,-0.1868,-0.1879,-0.1883,-0.1886,-0.1888,-0.1903,-0.1908,-0.1849,-0.1849,-0.1849,0,0,-0.1788,-0.1801,-0.1807,-0.1831,-0.1838,-0.1859,-0.185,-0.1863,-0.1878,-0.1858,-0.1869,-0.1865,-0.1864,-0.1877,-0.1881,-0.1871,-0.1905,-0.1889,-0.1892,-0.1892,-0.1905,-0.1911,-0.1916,-0.185,-0.185,-0.185,0,0,-0.179,-0.1801,-0.1813,-0.183,-0.185,-0.1861,-0.1867,-0.1882,-0.1886,-0.19,-0.1892,-0.19,-0.1901,-0.1908,-0.191,-0.194,-0.1927,-0.1939,-0.196,-0.1974,-0.1979,-0.1983,-0.1995,-0.2,-0.194,-0.194,-0.194,0,-0.1783,-0.1802,-0.1818,-0.1838,-0.1853,-0.1864,-0.1884,-0.1897,-0.1911,-0.192,-0.1907,-0.1925,-0.192,-0.1946,-0.1952,-0.195,-0.1951,-0.1939,-0.1979,-0.1983,-0.1987,-0.1998,-0.2003,-0.1942,-0.1942,-0.1942,-0.1941,0,-0.1797,-0.1814,-0.1823,-0.1853,-0.1875,-0.1891,-0.192,-0.1938,-0.1942,-0.1953,-0.1975,-0.1972,-0.1981,-0.1985,-0.1974,-0.2003,-0.1993,-0.1983,-0.1965,-0.1995,-0.2005,-0.201,-0.1945,-0.1944,-0.1943,-0.1943,0,0,-0.177,-0.1821,-0.1823,-0.1842,-0.1883,-0.1903,-0.1939,-0.1973,-0.1999,-0.2006,-0.2034,-0.2041,-0.2034,-0.2037,-0.2031,-0.2041,-0.2067,-0.202,-0.202,-0.2029,-0.2096,-0.2111,-0.2117,-0.2059,-0.206,-0.2061,-0.2094,0,-0.1769,-0.1807,-0.1836,-0.1873,-0.1895,-0.1931,-0.1967,-0.2003,-0.2027,-0.2059,-0.2065,-0.2082,-0.2057,-0.206,-0.2068,-0.2068,-0.208,-0.2059,-0.2068,-0.2068,-0.2075,-0.2124,-0.1916,-0.193,-0.2099,-0.21,-0.21,0,-0.1766,-0.1795,-0.1829,-0.1889,-0.1903,-0.193,-0.1992,-0.2025,-0.208,-0.2096,-0.2117,-0.2124,-0.2142,-0.2114,-0.213,-0.2115,-0.2107,-0.2105,-0.2106,-0.2111,-0.2092,-0.1926,-0.1932,-0.2108,-0.2107,-0.2107,-0.2106,0,-0.1732,-0.1788,-0.1812,-0.1832,-0.1903,-0.1928,-0.1964,-0.2029,-0.2065,-0.2114,-0.2144,-0.2164,-0.2178,-0.2173,-0.2169,-0.2147,-0.2192,-0.2161,-0.2171,-0.2172,-0.1993,-0.1977,-0.2177,-0.2177,-0.2177,-0.2177,-0.2177,0,-0.1715,-0.1734,-0.1797,-0.1812,-0.1851,-0.1909,-0.1957,-0.2,-0.2069,-0.2112,-0.2149,-0.2188,-0.2191,-0.222,-0.2198,-0.2211,-0.2215,-0.2189,-0.2188,-0.2001,-0.1986,-0.2134,-0.2128,-0.2178,-0.2178,-0.2178,-0.2177,0,-0.1664,-0.1707,-0.1738,-0.181,-0.1833,-0.1858,-0.1943,-0.1979,-0.2052,-0.2112,-0.2127,-0.2208,-0.2245,-0.2263,-0.2272,-0.2256,-0.2259,-0.226,-0.2047,-0.2023,-0.2218,-0.2214,-0.227,-0.2271,-0.2272,-0.2273,-0.2274,0,-0.1637,-0.1645,-0.1717,-0.1734,-0.1761,-0.1812,-0.1849,-0.1943,-0.199,-0.2119,-0.2143,-0.2226,-0.2271,-0.2321,-0.2285,-0.2276,-0.2298,-0.2097,-0.2027,-0.2237,-0.2231,-0.2225,-0.222,-0.1792,-0.1789,-0.1786,-0.1784,0,-0.1573,-0.1595,-0.1619,-0.1667,-0.1703,-0.175,-0.1813,-0.1855,-0.1968,-0.2045,-0.2144,-0.2201,-0.2261,-0.2179,-0.2195,-0.2147,-0.2084,-0.2046,-0.2305,-0.1826,-0.1796,-0.1787,-0.1795,-0.1759,-0.1761,-0.1763,-0.1765,-0.1766,-0.1506,-0.1507,-0.1543,-0.1581,-0.1623,-0.1664,-0.1676,-0.1769,-0.1849,-0.1941,-0.2058,-0.2097,-0.2087,-0.2036,-0.1952,-0.1876,-0.2015,-0.1892,-0.1895,-0.1903,-0.1867,-0.1843,-0.1807,-0.1809,-0.1812,-0.1814,-0.1815,0,-0.1417,-0.1434,-0.1458,-0.1501,-0.1508,-0.1569,-0.1631,-0.1627,-0.169,-0.1811,-0.1892,-0.1762,-0.1739,-0.1732,-0.1587,-0.1582,-0.1502,-0.1502,-0.1366,-0.1393,-0.1417,-0.1351,-0.1156,-0.1154,-0.1152,-0.1151,0,0,-0.1371,-0.1359,-0.1381,-0.137,-0.1395,-0.138,-0.139,-0.1412,-0.1467,-0.1501,-0.1544,-0.1708,-0.1731,-0.1465,-0.1382,-0.125,-0.1307,-0.1188,-0.1716,-0.1585,-0.1606,-0.1642,-0.1572,0,0,0,0,0]},{"header":{"parameterUnit":"m.s-1","parameterCategory":2,"la1":30.2991,"la2":30.254,"lo1":-89.0895,"lo2":-89.0444,"dy":0.0017,"dx":0.0017,"nx":28,"ny":28,"refTime":"2023-10-08T09:00:00:Z","depth":"2","parameterNumber":3,"parameterNumberName":"V-component_of_CURRENTS"},"data":[0,0,0,0,0,0,0,0,0,0,0,0,0,0,0,0,0,0,0,0,0,0,0,0,0,0,0,0,0,0,0,0,0,0,0,0,0,0,0,0,0,0,0,0,0,0,0,0,0,0,0,0,0,0,0,0,0,0,-0.0171,-0.017,0,-0.0096,-0.0095,-0.0094,-0.0051,-0.0051,-0.0051,-0.0051,0.0014,0.0016,0.0017,0,0,0,0,0,0,0,0,0,0,0,0,0,-0.0244,-0.0243,-0.0171,-0.017,-0.0169,-0.0096,-0.0095,-0.0094,-0.0051,-0.0051,-0.0051,-0.0051,0.0014,0.0016,0.0018,0,0,0,0,0,0,0,0,0,0,0,0,0,-0.0195,-0.0243,-0.0171,-0.0139,-0.0136,-0.0096,-0.0095,-0.0094,-0.0051,-0.0051,-0.0051,-0.0051,0.0013,0.0015,0.0018,0.0028,0,0,0.0025,0.0026,0,0,0,0,0,0,0,0,-0.0198,-0.0193,-0.0145,-0.0141,-0.0137,-0.0083,-0.0097,-0.0054,-0.0051,-0.0083,-0.0051,-0.005,-0.0019,-0.0014,-0.0,0.0031,0.0034,0.0025,0.0027,0.0028,0.0028,0,0,0,0,0,0,0,-0.0202,-0.0195,-0.0141,-0.0144,-0.0139,-0.0117,-0.011,-0.0088,-0.0054,-0.008,-0.0077,-0.0069,-0.0017,-0.0003,0.0001,0.0035,0.0025,0.0027,0.0029,0.003,0.0075,0.0075,0,0,0,0,0,0,-0.0213,-0.0199,-0.0144,-0.0139,-0.0168,-0.0116,-0.0108,-0.01,-0.0054,-0.0046,-0.0069,-0.0067,-0.0007,-0.0001,0.0004,0.0013,0.0028,0.003,0.0031,0.0076,0.0075,0.0075,0,0,0,0,0,0,-0.0215,-0.0209,-0.0147,-0.0167,-0.0158,-0.0115,-0.0107,-0.0099,-0.0085,-0.0045,-0.0038,-0.0063,-0.0007,0.0,0.0023,0.0016,0.0031,0.0033,0.0076,0.0075,0.0075,0.0034,0,0,0,0,0,0,-0.0217,-0.021,-0.0211,-0.0168,-0.0157,-0.0129,-0.0107,-0.0098,-0.008,-0.0077,-0.0037,-0.0031,-0.0006,0.0019,0.0026,0.0019,0.0035,0.0076,0.0076,0.0075,0.0036,0.0032,0.003,0,0,0,0,0,-0.022,-0.0223,-0.0212,-0.0205,-0.0159,-0.0129,-0.0122,-0.009,-0.0081,-0.0077,-0.0048,-0.0032,0.0021,0.0021,0.0029,0.0023,0.0076,0.0076,0.0075,0.0037,0.0033,0.003,0,0,0,0,0,0,-0.0255,-0.0217,-0.0204,-0.0195,-0.0167,-0.0122,-0.0116,-0.0095,-0.0069,-0.0068,-0.0031,-0.0022,-0.0007,0.0014,0.0013,0.0034,0.0049,0.005,0.0018,0.0015,0.0011,0.0004,0.0037,0,0,0,0,0,-0.0264,-0.0257,-0.0216,-0.0211,-0.0199,-0.016,-0.0145,-0.0124,-0.0093,-0.0081,-0.0052,-0.0025,-0.0003,0.001,0.0033,0.0046,0.0066,0.0046,0.0043,0.004,0.0038,0.0061,0.006,0.0073,0.0073,0.0073,0,0,-0.0277,-0.0255,-0.0251,-0.0218,-0.0194,-0.0182,-0.015,-0.0132,-0.0122,-0.0079,-0.0061,-0.0035,-0.0002,0.0014,0.0022,0.003,0.0047,0.0039,0.0037,0.0037,0.006,0.0059,0.0058,0.0073,0.0073,0.0073,0,0,-0.03,-0.028,-0.0282,-0.0261,-0.0229,-0.0203,-0.0201,-0.0159,-0.0141,-0.0119,-0.0089,-0.0066,-0.0031,-0.0007,0.0009,0.0002,0.0029,0.0006,-0.0014,0.0008,0.0007,0.0006,0.0029,0.0031,0.0005,0.0005,0.0005,0,-0.0319,-0.0314,-0.0278,-0.0274,-0.0263,-0.0217,-0.0219,-0.0191,-0.0148,-0.0136,-0.0122,-0.0068,-0.0041,-0.0019,-0.002,-0.0005,0.0012,-0.0003,0.0003,0.0003,0.0003,0.0027,0.0029,0.0003,0.0003,0.0004,0.0004,0,-0.0341,-0.0338,-0.0337,-0.0318,-0.03,-0.0295,-0.0253,-0.0236,-0.0211,-0.018,-0.0152,-0.0109,-0.0078,-0.0067,-0.0043,-0.003,-0.0016,-0.0005,0.0011,-0.0001,0.0025,0.0028,0.0,0.0001,0.0002,0.0002,0,0,-0.0379,-0.036,-0.0359,-0.0364,-0.0326,-0.0317,-0.0299,-0.027,-0.0263,-0.0217,-0.0203,-0.0158,-0.013,-0.011,-0.0077,-0.0054,-0.0037,-0.0032,-0.003,-0.0012,0.0012,0.0051,0.0059,-0.0025,-0.0025,-0.0024,0.0029,0,-0.041,-0.0424,-0.0398,-0.0411,-0.0416,-0.0373,-0.0364,-0.033,-0.0291,-0.0264,-0.021,-0.0184,-0.0147,-0.0135,-0.0105,-0.0052,-0.003,-0.0052,0.0024,0.0026,0.006,0.0063,0.0062,0.0112,0.0033,0.0033,0.0034,0,-0.0437,-0.0445,-0.0467,-0.0468,-0.0466,-0.0463,-0.0442,-0.0424,-0.0366,-0.0339,-0.0291,-0.0242,-0.0191,-0.0165,-0.008,-0.0096,-0.0049,-0.0008,-0.0005,0.0049,0.0071,0.0112,0.0121,0.004,0.0039,0.0039,0.0038,0,-0.0486,-0.0492,-0.0517,-0.0515,-0.0504,-0.0507,-0.0495,-0.0448,-0.0439,-0.0378,-0.0363,-0.0289,-0.0256,-0.0183,-0.0081,-0.0086,0.0014,0.0017,0.0096,0.0099,0.0122,0.0127,0.0066,0.0066,0.0065,0.0065,0.0065,0,-0.0527,-0.0546,-0.0545,-0.0559,-0.0596,-0.0559,-0.0575,-0.0548,-0.0507,-0.0504,-0.0407,-0.0384,-0.026,-0.0178,-0.0094,0.0023,0.0006,0.0096,0.0117,0.0108,0.0111,0.0068,0.0067,0.0067,0.0067,0.0066,0.0066,0,-0.0573,-0.0569,-0.0606,-0.0614,-0.062,-0.0642,-0.064,-0.0648,-0.0595,-0.0583,-0.0568,-0.0455,-0.0343,-0.0207,-0.008,0.0004,0.0111,0.0151,0.0139,0.0158,0.0181,0.0177,0.0236,0.0238,0.024,0.0241,0.0242,0,-0.0596,-0.0618,-0.0657,-0.0691,-0.0698,-0.0722,-0.0743,-0.0702,-0.0702,-0.0631,-0.0632,-0.051,-0.043,-0.0201,-0.0014,0.0157,0.0146,0.0247,0.0239,0.0184,0.0199,0.0193,0.0188,0.0251,0.0252,0.0253,0.0254,0,-0.0645,-0.066,-0.0696,-0.0771,-0.0808,-0.0845,-0.086,-0.0872,-0.0822,-0.0803,-0.0749,-0.0675,-0.0419,-0.0198,0.006,0.0155,0.0225,0.027,0.022,0.021,0.0204,0.0216,0.0209,0.0261,0.0261,0.026,0.026,0.0259,-0.0682,-0.0729,-0.0785,-0.0859,-0.0906,-0.0957,-0.0993,-0.0991,-0.0997,-0.0944,-0.0843,-0.0701,-0.044,-0.0071,0.0125,0.0314,0.029,0.0335,0.033,0.0324,0.0319,0.0316,0.0394,0.0394,0.0394,0.0394,0.0394,0,-0.0723,-0.079,-0.087,-0.0955,-0.1022,-0.1027,-0.1069,-0.1078,-0.1093,-0.1011,-0.0929,-0.0632,-0.0341,-0.0077,0.0236,0.0409,0.0391,0.0431,0.0382,0.0374,0.0366,0.0361,0.0448,0.0449,0.0449,0.0449,0,0,-0.0749,-0.0842,-0.0896,-0.1034,-0.1096,-0.1164,-0.119,-0.1187,-0.1135,-0.1064,-0.0935,-0.0703,-0.0361,-0.012,0.0126,0.0289,0.0266,0.0295,0.0234,0.0137,0.0127,0.0299,0.028,0,0,0,0,0]}],[{"header":{"parameterUnit":"m.s-1","parameterCategory":2,"la1":30.2991,"la2":30.254,"lo1":-89.0895,"lo2":-89.0444,"dy":0.0017,"dx":0.0017,"nx":28,"ny":28,"refTime":"2023-10-08T09:00:00:Z","depth":"4","parameterNumber":2,"parameterNumberName":"U-component_of_CURRENTS"},"data":[0,0,0,0,0,0,0,0,0,0,0,0,0,0,0,0,0,0,0,0,0,0,0,0,0,0,0,0,0,0,0,0,0,0,0,0,0,0,0,0,0,0,0,0,0,0,0,0,0,0,0,0,0,0,0,0,0,0,-0.1256,-0.1256,0,-0.1303,-0.1303,-0.1304,-0.1336,-0.1336,-0.1336,-0.1337,-0.1393,-0.1394,-0.1395,0,0,0,0,0,0,0,0,0,0,0,0,0,-0.1184,-0.1185,-0.1256,-0.1256,-0.1257,-0.1303,-0.1303,-0.1304,-0.1336,-0.1336,-0.1336,-0.1337,-0.1392,-0.1394,-0.1395,0,0,0,0,0,0,0,0,0,0,0,0,0,-0.122,-0.1186,-0.1255,-0.1279,-0.1282,-0.1303,-0.1303,-0.1304,-0.1335,-0.1336,-0.1336,-0.1337,-0.1392,-0.1394,-0.1395,-0.1395,0,0,-0.1401,-0.1401,0,0,0,0,0,0,0,0,-0.1218,-0.1223,-0.1275,-0.1278,-0.1281,-0.1315,-0.1299,-0.1335,-0.1335,-0.1314,-0.1337,-0.1337,-0.1368,-0.1372,-0.1377,-0.1398,-0.14,-0.1401,-0.1402,-0.1403,-0.1403,0,0,0,0,0,0,0,-0.1216,-0.1221,-0.1273,-0.1276,-0.1279,-0.1285,-0.1291,-0.1306,-0.1336,-0.1316,-0.1318,-0.1326,-0.137,-0.1376,-0.1379,-0.1401,-0.1401,-0.1402,-0.1403,-0.1404,-0.1489,-0.149,0,0,0,0,0,0,-0.1213,-0.1219,-0.1271,-0.1274,-0.1252,-0.1286,-0.1292,-0.1302,-0.1336,-0.1342,-0.1325,-0.1327,-0.1372,-0.1377,-0.1381,-0.144,-0.1403,-0.1404,-0.1405,-0.1488,-0.149,-0.1491,0,0,0,0,0,0,-0.1211,-0.1217,-0.1269,-0.1248,-0.1256,-0.1287,-0.1298,-0.1303,-0.1331,-0.1344,-0.135,-0.135,-0.1373,-0.1379,-0.1415,-0.144,-0.1405,-0.1407,-0.1487,-0.1488,-0.149,-0.1522,0,0,0,0,0,0,-0.1209,-0.1216,-0.1232,-0.1248,-0.1257,-0.1296,-0.1298,-0.1304,-0.1334,-0.1337,-0.1367,-0.1371,-0.1374,-0.1412,-0.1416,-0.1442,-0.1408,-0.1485,-0.1487,-0.149,-0.1519,-0.1524,-0.1529,0,0,0,0,0,-0.1206,-0.1222,-0.1232,-0.1239,-0.1274,-0.1297,-0.1303,-0.1325,-0.1335,-0.1351,-0.1372,-0.1372,-0.143,-0.1414,-0.1419,-0.1446,-0.1484,-0.1487,-0.1489,-0.1517,-0.1523,-0.1529,0,0,0,0,0,0,-0.12,-0.1227,-0.1239,-0.1263,-0.1286,-0.1304,-0.1323,-0.1337,-0.1366,-0.1375,-0.1385,-0.1391,-0.1432,-0.1436,-0.1419,-0.1478,-0.1458,-0.1462,-0.1477,-0.1483,-0.1488,-0.1484,-0.1409,0,0,0,0,0,-0.1205,-0.1225,-0.125,-0.1271,-0.1284,-0.1308,-0.1324,-0.134,-0.1363,-0.1377,-0.1398,-0.1422,-0.1443,-0.1461,-0.1478,-0.1511,-0.1508,-0.1532,-0.1537,-0.1541,-0.1542,-0.156,-0.1566,-0.15,-0.15,-0.15,0,0,-0.1209,-0.1226,-0.1239,-0.1271,-0.1291,-0.1316,-0.1319,-0.135,-0.1377,-0.1378,-0.1426,-0.144,-0.1456,-0.1492,-0.1511,-0.1501,-0.156,-0.1545,-0.1548,-0.1547,-0.1563,-0.1569,-0.1575,-0.1502,-0.1501,-0.1501,0,0,-0.1218,-0.1243,-0.1261,-0.1284,-0.1319,-0.1334,-0.1349,-0.1381,-0.1404,-0.1445,-0.1454,-0.1484,-0.1521,-0.1536,-0.1547,-0.159,-0.1583,-0.1601,-0.1625,-0.1642,-0.1647,-0.1652,-0.1657,-0.1662,-0.1605,-0.1605,-0.1605,0,-0.1223,-0.1248,-0.127,-0.1295,-0.1319,-0.1346,-0.1373,-0.1399,-0.1442,-0.1463,-0.1467,-0.1527,-0.1541,-0.1581,-0.1595,-0.1601,-0.1604,-0.16,-0.1648,-0.1652,-0.1656,-0.166,-0.1665,-0.1607,-0.1607,-0.1606,-0.1606,0,-0.1238,-0.127,-0.1284,-0.1325,-0.1354,-0.1382,-0.142,-0.1456,-0.1486,-0.1509,-0.1561,-0.1579,-0.1613,-0.1626,-0.1624,-0.1665,-0.1655,-0.1649,-0.1629,-0.1664,-0.1667,-0.1671,-0.1609,-0.1609,-0.1608,-0.1608,0,0,-0.1216,-0.1282,-0.129,-0.1318,-0.1373,-0.1397,-0.145,-0.1497,-0.1536,-0.1575,-0.1619,-0.1655,-0.1665,-0.1677,-0.1684,-0.17,-0.1731,-0.1689,-0.1689,-0.1688,-0.1764,-0.1668,-0.1663,-0.1733,-0.1734,-0.1735,-0.1753,0,-0.1222,-0.1271,-0.1306,-0.1361,-0.139,-0.1439,-0.1485,-0.1536,-0.1578,-0.1628,-0.1654,-0.1695,-0.1685,-0.1705,-0.1721,-0.173,-0.1745,-0.1726,-0.1735,-0.1735,-0.164,-0.1666,-0.1738,-0.1756,-0.1757,-0.1758,-0.1758,0,-0.1218,-0.1256,-0.131,-0.1385,-0.1404,-0.1445,-0.1526,-0.1569,-0.1639,-0.1671,-0.1713,-0.1735,-0.177,-0.1755,-0.1784,-0.1773,-0.1772,-0.1773,-0.1774,-0.1674,-0.1647,-0.1715,-0.1766,-0.1766,-0.1765,-0.1764,-0.1764,0,-0.118,-0.1256,-0.13,-0.1326,-0.1415,-0.1457,-0.1505,-0.1584,-0.1627,-0.1697,-0.1735,-0.1775,-0.1804,-0.181,-0.1815,-0.1804,-0.1841,-0.1824,-0.1736,-0.173,-0.1796,-0.1791,-0.1844,-0.1844,-0.1844,-0.1843,-0.1843,0,-0.1157,-0.1195,-0.1291,-0.1316,-0.1377,-0.1446,-0.1515,-0.1568,-0.1648,-0.169,-0.175,-0.1782,-0.182,-0.1847,-0.1835,-0.1796,-0.1857,-0.174,-0.1728,-0.181,-0.1806,-0.1799,-0.1794,-0.1844,-0.1844,-0.1844,-0.1844,0,-0.1099,-0.1164,-0.1219,-0.1322,-0.1359,-0.1401,-0.1512,-0.1553,-0.164,-0.1697,-0.172,-0.1799,-0.1819,-0.1851,-0.1867,-0.1813,-0.1791,-0.1766,-0.1855,-0.1849,-0.1662,-0.1658,-0.1655,-0.1652,-0.1649,-0.1647,-0.1645,0,-0.107,-0.1093,-0.1207,-0.1241,-0.1291,-0.137,-0.1419,-0.1527,-0.1567,-0.1688,-0.1698,-0.1769,-0.1803,-0.175,-0.1787,-0.1763,-0.1745,-0.1723,-0.1681,-0.1654,-0.1643,-0.1644,-0.1644,-0.1641,-0.164,-0.1639,-0.1639,0,-0.1007,-0.1056,-0.11,-0.1175,-0.1236,-0.1299,-0.1377,-0.1401,-0.1513,-0.1613,-0.1633,-0.1648,-0.1676,-0.1677,-0.1681,-0.166,-0.1727,-0.1694,-0.1699,-0.1659,-0.1636,-0.1629,-0.1632,-0.1629,-0.163,-0.1631,-0.1632,0,-0.0954,-0.0968,-0.1034,-0.1088,-0.116,-0.1197,-0.1259,-0.131,-0.1369,-0.1504,-0.1504,-0.1579,-0.1657,-0.1625,-0.1623,-0.1601,-0.1568,-0.151,-0.1524,-0.1535,-0.1486,-0.1439,-0.136,0,0,0,0,0,-0.0894,-0.09,-0.0943,-0.1001,-0.1067,-0.1112,-0.1213,-0.1277,-0.1394,-0.137,-0.1436,-0.1453,-0.1458,-0.1499,-0.1448,-0.1562,-0.1571,-0.1496,-0.1511,-0.1576,-0.1587,-0.1541,0,0,0,0,0,0,-0.0854,-0.0885,-0.0907,-0.0913,-0.0932,-0.1,-0.1057,-0.1142,-0.1143,-0.1262,-0.1272,-0.1362,-0.1386,-0.146,-0.1415,-0.1427,-0.1407,-0.1549,-0.1545,-0.157,-0.158,-0.1589,-0.1545,0,0,0,0,0]},{"header":{"parameterUnit":"m.s-1","parameterCategory":2,"la1":30.2991,"la2":30.254,"lo1":-89.0895,"lo2":-89.0444,"dy":0.0017,"dx":0.0017,"nx":28,"ny":28,"refTime":"2023-10-08T09:00:00:Z","depth":"4","parameterNumber":3,"parameterNumberName":"V-component_of_CURRENTS"},"data":[0,0,0,0,0,0,0,0,0,0,0,0,0,0,0,0,0,0,0,0,0,0,0,0,0,0,0,0,0,0,0,0,0,0,0,0,0,0,0,0,0,0,0,0,0,0,0,0,0,0,0,0,0,0,0,0,0,0,0.0024,0.0025,0,0.0072,0.0073,0.0073,0.0105,0.0106,0.0106,0.0106,0.0152,0.0153,0.0154,0,0,0,0,0,0,0,0,0,0,0,0,0,-0.0014,-0.0014,0.0024,0.0025,0.0025,0.0072,0.0073,0.0073,0.0105,0.0106,0.0106,0.0106,0.0152,0.0153,0.0154,0,0,0,0,0,0,0,0,0,0,0,0,0,0.0015,-0.0014,0.0024,0.0047,0.0049,0.0072,0.0073,0.0074,0.0105,0.0106,0.0106,0.0106,0.0151,0.0153,0.0154,0.0158,0,0,0.0159,0.016,0,0,0,0,0,0,0,0,0.0013,0.0016,0.0043,0.0045,0.0048,0.0083,0.0076,0.0102,0.0105,0.0084,0.0106,0.0106,0.0128,0.0132,0.014,0.016,0.0162,0.0159,0.016,0.0161,0.0161,0,0,0,0,0,0,0,0.0011,0.0015,0.0043,0.0043,0.0046,0.0063,0.0067,0.0081,0.0104,0.0086,0.0088,0.0093,0.013,0.0139,0.0142,0.0163,0.0159,0.0161,0.0161,0.0162,0.0188,0.0188,0,0,0,0,0,0,0.0003,0.0013,0.0042,0.0045,0.0031,0.0064,0.0068,0.0072,0.0104,0.0109,0.0093,0.0095,0.0136,0.014,0.0144,0.0147,0.0161,0.0162,0.0163,0.0188,0.0188,0.0188,0,0,0,0,0,0,0.0002,0.0005,0.004,0.003,0.0035,0.0064,0.0067,0.0072,0.0082,0.0109,0.0115,0.0097,0.0136,0.0141,0.0156,0.0149,0.0163,0.0164,0.0189,0.0188,0.0188,0.0156,0,0,0,0,0,0,0.0001,0.0004,0.0002,0.0029,0.0036,0.005,0.0067,0.0073,0.0084,0.0087,0.0114,0.0119,0.0137,0.0154,0.0158,0.0152,0.0166,0.0189,0.0189,0.0188,0.0158,0.0155,0.0153,0,0,0,0,0,-0.0001,-0.0006,0.0001,0.0005,0.0032,0.0049,0.0054,0.0076,0.0084,0.0085,0.0106,0.0118,0.0154,0.0155,0.016,0.0154,0.0189,0.0189,0.0188,0.0159,0.0156,0.0153,0,0,0,0,0,0,-0.0023,-0.0002,0.0006,0.0008,0.0025,0.0055,0.0057,0.0072,0.009,0.0091,0.0118,0.0124,0.0133,0.0148,0.0149,0.016,0.0172,0.0173,0.0148,0.0145,0.0143,0.0138,0.0167,0,0,0,0,0,-0.003,-0.0029,-0.0005,-0.0004,0.0003,0.0028,0.0037,0.0052,0.0072,0.0081,0.0101,0.012,0.0134,0.0143,0.0158,0.0166,0.0183,0.0164,0.0162,0.0159,0.0158,0.0177,0.0176,0.0186,0.0186,0.0186,0,0,-0.004,-0.0028,-0.0028,-0.0009,0.0005,0.0011,0.0035,0.0045,0.005,0.0082,0.0093,0.0111,0.0134,0.0143,0.0148,0.0155,0.0166,0.0159,0.0157,0.0157,0.0177,0.0176,0.0175,0.0186,0.0186,0.0186,0,0,-0.0058,-0.0047,-0.0053,-0.004,-0.0022,-0.0005,-0.0004,0.0022,0.0034,0.0047,0.007,0.0086,0.0108,0.0126,0.0137,0.0129,0.015,0.013,0.0115,0.0133,0.0133,0.0132,0.0153,0.0155,0.013,0.013,0.013,0,-0.0071,-0.0073,-0.0051,-0.0051,-0.0046,-0.0015,-0.002,-0.0001,0.0027,0.0035,0.0044,0.008,0.0099,0.0115,0.0113,0.0123,0.0137,0.0125,0.013,0.013,0.013,0.0152,0.0154,0.0128,0.0129,0.0129,0.0129,0,-0.009,-0.0092,-0.0094,-0.0085,-0.0076,-0.0075,-0.0049,-0.0039,-0.0022,-0.0001,0.0017,0.0047,0.0068,0.0076,0.0094,0.0103,0.0115,0.0123,0.0137,0.0127,0.015,0.0153,0.0126,0.0127,0.0127,0.0128,0,0,-0.0115,-0.0111,-0.0111,-0.0119,-0.0096,-0.0094,-0.0084,-0.0067,-0.0064,-0.0032,-0.0024,0.0007,0.0028,0.0041,0.0066,0.0085,0.0101,0.0103,0.0104,0.0122,0.0143,0.0152,0.0157,0.011,0.011,0.011,0.0159,0,-0.0138,-0.0156,-0.0142,-0.0158,-0.0166,-0.0139,-0.0137,-0.0115,-0.009,-0.0072,-0.0031,-0.0016,0.0014,0.002,0.0046,0.0088,0.0108,0.0088,0.0151,0.0153,0.0161,0.016,0.0111,0.0162,0.0162,0.0163,0.0163,0,-0.0157,-0.0169,-0.0193,-0.0205,-0.0206,-0.021,-0.0203,-0.0194,-0.0154,-0.0136,-0.0101,-0.0064,-0.0024,-0.0004,0.0067,0.0053,0.0093,0.0128,0.013,0.0152,0.0168,0.0174,0.0169,0.0169,0.0168,0.0168,0.0168,0,-0.0186,-0.0203,-0.0229,-0.0231,-0.0236,-0.0245,-0.0244,-0.0215,-0.0214,-0.0172,-0.0164,-0.0105,-0.0082,-0.0019,0.0065,0.0062,0.0146,0.0149,0.0196,0.0198,0.0189,0.0189,0.0192,0.0192,0.0192,0.0192,0.0192,0,-0.021,-0.0232,-0.0251,-0.0265,-0.0305,-0.0286,-0.0312,-0.0297,-0.0274,-0.0276,-0.0202,-0.0185,-0.0086,-0.0018,0.0055,0.0142,0.014,0.0195,0.021,0.0175,0.0173,0.0192,0.0191,0.0194,0.0193,0.0193,0.0193,0,-0.0232,-0.0243,-0.0281,-0.0307,-0.0321,-0.0347,-0.0367,-0.038,-0.0349,-0.0345,-0.0335,-0.0247,-0.0158,-0.0047,0.006,0.0122,0.0207,0.0237,0.0199,0.0211,0.0247,0.0244,0.0285,0.0285,0.0286,0.0286,0.0287,0,-0.0241,-0.0263,-0.032,-0.0357,-0.0374,-0.041,-0.0439,-0.0424,-0.0427,-0.0382,-0.0379,-0.029,-0.0223,-0.0056,0.006,0.0207,0.0225,0.027,0.0253,0.0246,0.0257,0.0253,0.0249,0.0288,0.0288,0.0288,0.0288,0,-0.0262,-0.0288,-0.0325,-0.0405,-0.0452,-0.0498,-0.0526,-0.0534,-0.0508,-0.0484,-0.0419,-0.0317,-0.0209,-0.0066,0.0058,0.0161,0.0243,0.0277,0.0275,0.0259,0.025,0.0259,0.0255,0.029,0.029,0.029,0.029,0,-0.0279,-0.0318,-0.0377,-0.0447,-0.0514,-0.0563,-0.0575,-0.057,-0.0565,-0.05,-0.048,-0.0347,-0.0265,-0.0089,0.0024,0.0133,0.015,0.0176,0.018,0.0179,0.0139,0.0112,0.0122,0,0,0,0,0,-0.0286,-0.034,-0.0415,-0.0492,-0.056,-0.0594,-0.0624,-0.0619,-0.0591,-0.0557,-0.0515,-0.041,-0.0227,-0.0134,-0.0028,0.0026,0.0164,0.0154,0.0194,0.0302,0.0299,0.0272,0,0,0,0,0,0,-0.0295,-0.0364,-0.0416,-0.0514,-0.0572,-0.0637,-0.0657,-0.0641,-0.0605,-0.0561,-0.0461,-0.0392,-0.021,-0.0294,-0.003,0.0007,0.0046,0.0248,0.0251,0.0303,0.0301,0.0299,0.027,0,0,0,0,0]}]]